#timestamp,LO_Frequency,Hit 
1505912415.1,286047004.8,N
1505912435.9,286047008.8,N
1505912455.7,286047008.6,N
1505912475.5,286047009.1,N
1505912495.4,286047006.3,N
1505912515.2,286047010.4,N
1505912535.0,286047009.7,N
1505912535.9,286047009.7,N
1505912555.8,286047011.1,N
1505912575.6,286047013.2,N
1505912595.4,286047014.8,N
1505912615.3,286047011.8,N
1505912635.1,286047013.9,N
1505912636.0,286047013.9,N
1505912655.8,286047008.2,N
1505912675.7,286047008.6,N
1505912695.5,286047010.4,N
1505912715.3,286047004.8,N
1505912735.1,286047005.6,N
1505912755.9,286047003.1,N
1505912775.7,286047001.9,N
1505912795.5,286047001.3,N
1505912815.4,286047001.1,N
1505912835.2,286046996.8,N
1505912855.0,286046996.7,N
1505912855.9,286046996.7,N
1505912875.8,286046999.2,N
1505912895.6,286046997.7,N
1505912915.4,286046995.4,N
1505912935.3,286046994.9,N
1505912955.1,286046999.1,N
1505912975.8,286047004.4,N
1505912995.7,286047003.9,N
1505913015.5,286047002.5,N
1505913035.3,286047005.5,N
1505913055.2,286047006.7,N
1505913075.9,286047004.9,N
1505913095.7,286047005.6,N
1505913115.5,286047008.7,N
1505913135.4,286047014.0,N
1505913155.2,286047014.1,N
1505913175.0,286047015.1,N
1505913175.9,286047015.1,N
1505913195.8,286047010.6,N
1505913215.6,286047006.2,N
1505913235.4,286047004.7,N
1505913255.3,286047003.2,N
1505913275.1,286047002.9,N
1505913295.8,286047009.5,N
1505913315.7,286047012.6,N
1505913335.5,286047013.7,N
1505913355.3,286047011.5,N
1505913375.2,286047008.4,N
1505913395.9,286047006.9,N
1505913415.7,286047005.9,N
1505913435.6,286047004.1,N
1505913455.4,286047004.4,N
1505913475.2,286047006.9,N
1505913495.0,286047005.0,N
1505913496.0,286047005.0,N
1505913515.8,286047004.0,N
1505913535.6,286047001.8,N
1505913555.4,286047002.2,N
1505913575.3,286047002.1,N
1505913595.1,286047006.0,N
1505913615.8,286047006.5,N
1505913635.7,286047007.3,N
1505913655.5,286047005.4,N
1505913675.3,286047003.9,N
1505913695.2,286047002.0,N
1505913715.9,286047000.3,N
1505913735.7,286047003.4,N
1505913755.6,286047006.8,N
1505913775.4,286047006.5,N
1505913795.2,286047004.6,N
1505913815.1,286047005.2,N
1505913816.0,286047005.2,N
1505913835.8,286047004.2,N
1505913855.6,286047005.7,N
1505913875.5,286047008.9,N
1505913895.3,286047005.8,N
1505913915.1,286047004.0,N
1505913935.8,286047003.8,N
1505913955.7,286047003.5,N
1505913975.5,286047005.4,N
1505913995.3,286047005.7,P
1505914015.2,286046998.8,N
1505914035.0,286046999.3,N
1505914035.9,286046999.3,N
1505914055.7,286046998.2,N
1505914075.6,286047000.4,N
1505914095.4,286047001.4,N
1505914115.2,286047002.6,N
1505914135.1,286047000.9,N
1505914136.0,286047000.9,N
1505914155.8,286046999.5,N
1505914175.6,286047000.6,N
1505914195.5,286047002.5,N
1505914215.3,286047002.5,N
1505914235.1,286047003.6,N
1505914255.9,286047000.6,N
1505914275.7,286046999.2,N
1505914295.5,286047000.8,N
1505914315.4,286046998.9,N
1505914335.2,286046999.5,N
1505914355.0,286046998.6,N
1505914355.9,286046998.6,N
1505914375.7,286047001.8,N
1505914395.6,286047003.5,N
1505914415.4,286047004.9,N
1505914435.3,286047009.7,P
1505914455.1,286047011.4,N
1505914456.0,286047011.4,N
1505914475.8,286047011.3,N
1505914495.7,286047012.0,N
1505914515.5,286047004.8,N
1505914535.3,286047003.4,N
1505914555.1,286047006.2,N
1505914575.9,286047008.8,N
1505914595.7,286047006.9,N
1505914615.5,286047004.4,N
1505914635.4,286047000.5,N
1505914655.2,286046997.2,N
1505914675.0,286046997.6,N
1505914675.9,286046997.6,N
1505914695.8,286046997.7,N
1505914715.6,286047002.7,N
1505914735.4,286047007.3,N
1505914755.3,286047011.9,N
1505914775.1,286047006.3,N
1505914776.0,286047006.3,N
1505914795.8,286047001.8,N
1505914815.7,286047003.8,N
1505914835.5,286047004.2,N
1505914855.3,286047002.7,N
1505914875.1,286046998.5,N
1505914895.9,286046999.8,N
1505914915.7,286047002.4,N
1505914935.5,286047002.3,N
1505914955.4,286047002.4,N
1505914975.2,286047002.8,N
1505914995.0,286047000.5,N
1505914995.9,286047000.5,N
1505915015.8,286046998.8,N
1505915035.6,286047004.2,N
1505915055.4,286047006.9,N
1505915075.3,286047009.6,N
1505915095.1,286047008.3,N
1505915096.0,286047008.3,N
1505915115.8,286047007.6,N
1505915135.7,286047007.2,N
1505915155.5,286047009.1,N
1505915175.3,286047011.6,N
1505915195.2,286047013.6,P
1505915215.9,286047004.5,N
1505915235.7,286047008.6,N
1505915255.6,286047010.7,N
1505915275.4,286047002.9,N
1505915295.2,286047000.3,N
1505915315.0,286047003.8,N
1505915315.9,286047003.8,N
1505915335.8,286047007.0,N
1505915355.6,286047004.4,N
1505915375.4,286047000.3,N
1505915395.3,286046999.7,N
1505915415.1,286047000.0,N
1505915435.8,286047004.1,N
1505915455.7,286047000.0,N
1505915475.5,286046998.0,N
1505915495.3,286046994.1,N
1505915515.2,286046995.3,N
1505915535.9,286046998.4,N
1505915555.7,286046998.6,N
1505915575.6,286046997.0,N
1505915595.4,286046997.8,N
1505915615.2,286046996.8,N
1505915635.0,286046994.9,N
1505915636.0,286046994.9,N
1505915655.8,286046996.2,N
1505915675.6,286046995.8,N
1505915695.4,286046997.6,N
1505915715.3,286046998.2,N
1505915735.1,286047000.7,N
1505915755.8,286046998.3,N
1505915775.7,286047002.4,N
1505915795.5,286047002.8,N
1505915815.3,286046999.8,N
1505915835.2,286047000.6,N
1505915855.9,286046997.0,N
1505915875.7,286046995.7,N
1505915895.6,286046994.0,N
1505915915.4,286046995.0,N
1505915935.2,286046997.5,N
1505915955.0,286046995.7,N
1505915956.0,286046995.7,N
1505915975.8,286046993.4,N
1505915995.6,286046995.6,N
